User: anonymous   Login
Location: Clanezzo
(45.7500°N, 9.6000°E)
Time: 01:04:26
(UTC+00:00)
Language:

XW-2F - Orbit

View from above orbital plane
View from above orbital plane
View from above satellite
View from above satellite

Ground track
Ground track

The orbit data is extracted from the following two-line orbital elements,

1 40910U 15049M   22180.55628506  .00007190  00000-0  30642-3 0  9998
2 40910  97.4718 187.5516 0011081 298.2823 179.4564 15.23205459375029
Epoch (UTC): 29 June 2022 13:21:03
Eccentricity: 0.0011081
inclination: 97.4718°
perigee height: 488 km
apogee height: 504 km
right ascension of ascending node: 187.5516°
argument of perigee: 298.2823°
revolutions per day: 15.23205459
mean anomaly at epoch: 179.4564°
orbit number at epoch: 37502

The dashed part of the orbit path shows where the satellite is in the earth's shadow,  

DLR